Flag Weather past 2 weeks in Wels, Upper Austria, Austria

Now
40 °F

Overcast.


Feels Like: 36 °F
Forecast: 33 / 41 °F
Wind: 6 mph from East

Location: Linz / Hoersching-Flughafen

Current Time: Nov 26, 2014 at 5:45:57 PM

Latest Report: Nov 26, 2014 at 5:00 PM


Visibility: 10 mi

Pressure: 30.09 "Hg

Humidity: 73%

Dew point: 32 °F

Location of WelsLocation

Historic Weather in Wels — Graph

°F

Wels temperature yesterday

Maximum temperature yesterday: 42 °F (at 1:00 PM)
Minimum temperature yesterday: 39 °F (at 3:00 AM)
Average temperature yesterday: 40 °F

Past Weeks' High & Low Weather Summary

 TemperatureHumidityPressure
High66 °F (Nov 12, 2:00 PM)100% (Nov 14, 6:00 AM)30.35 "Hg (Nov 14, 6:00 AM)
Low35 °F (Nov 26, 3:00 AM)54% (Nov 12, 2:00 PM)29.44 "Hg (Nov 16, 3:00 AM)
Average44 °F85%30.01 "Hg
* Reported Nov 11 4:00 PM — Nov 26 4:00 PM, Wels, Weather by CustomWeather, © 2014

Note: Actual official high and low records may vary slightly from our data, if they occured in-between our weather recording intervals... More about our weather records

Advertising

Wels weather history for previous 24 hours

 ConditionsComfort  
Time TempWeatherWind HumidityBarometerVisibility
4:00 PM
Nov 26
41 °FOvercast.6 mph72%30.09 "Hg11 mi
3:00 PM42 °FOvercast.5 mph72%30.09 "Hg12 mi
2:00 PM42 °FOvercast.6 mph72%30.10 "Hg10 mi
1:00 PM41 °FOvercast.5 mph73%30.11 "Hg10 mi
12:00 PM40 °FPassing clouds.15 mph76%30.13 "Hg1 mi
11:00 AM40 °FOvercast.6 mph75%30.15 "Hg10 mi
10:00 AM38 °FOvercast.5 mph76%30.16 "Hg7 mi
9:00 AM38 °FOvercast.5 mph79%30.17 "Hg7 mi
8:00 AM37 °FOvercast.5 mph81%30.16 "Hg7 mi
7:00 AM37 °FOvercast.5 mph81%30.16 "Hg9 mi
6:00 AM37 °FOvercast.5 mph81%30.16 "Hg8 mi
5:00 AM36 °FOvercast.5 mph84%30.17 "Hg7 mi
4:00 AM36 °FOvercast.6 mph86%30.19 "Hg6 mi
3:00 AM35 °FPassing clouds.5 mph86%30.19 "Hg7 mi
2:00 AM36 °FOvercast.5 mph84%30.20 "Hg7 mi
1:00 AM38 °FOvercast.6 mph79%30.21 "Hg9 mi
12:00 AM39 °FOvercast.8 mph77%30.23 "Hg10 mi
11:00 PM
Nov 25
40 °FOvercast.8 mph78%30.24 "Hg8 mi
10:00 PM40 °FOvercast.8 mph78%30.24 "Hg9 mi
9:00 PM40 °FOvercast.7 mph74%30.25 "Hg13 mi
8:00 PM41 °FOvercast.7 mph74%30.27 "Hg12 mi
7:00 PM40 °FOvercast.6 mph78%30.28 "Hg14 mi
6:00 PM40 °FOvercast.6 mph80%30.29 "Hg15 mi
5:00 PM41 °FOvercast.7 mph78%30.29 "Hg12 mi
Weather by CustomWeather, © 2014

See weather overviewHow to use our weather pages